ImprimablePdf
Running Tour > 2011 - Antwerpen, 17/04/2011, BEL - DVV Antwerp 10 Miles
Liste des rapports > DVV Antwerp 10 Miles - Classement + Video
Recherche: Page: [1] 2 3 4 5 6 7 8 9
1692 Entrées
 
Les réclamations ne sont plus acceptées, les résultats sont considérés comme définitifs.
RangNrNomIOCEquipeTempsTkmMoy.ScrLocalité
1.12FVANDEN BEMPT SigridBEL56:393:32 17.0536X
2.31FD'HAESE VeerleBEL59:023:41 16.3691SCHOTEN
3.9715FDILLEN KimNLDPWC1:01:533:51 15.61149WAALRE
4.355FDIELS TineBEL1:02:063:52 15.55154HALLE
5.6FGEYPEN KimBEL1:02:403:54 15.41168ZERKEGEM
6.11FDE DEYNE GwendolynBEL1:02:573:55 15.34183X
7.7FLEYSEN LeenBEL1:05:224:04 14.78310SINT-ANDRIES
8.1889FJOCHEMS EvyBEL1:07:194:11 14.35456DEURNE
9.276FMICHIELS NathalieBEL1:08:484:17 14.04615WAASMUNSTER
10.618FVAN IMSCHOOT MarijkeBEL1:09:144:19 13.95663KEMZEKE
11.14317FVAN HOEK VeerleBEL1:09:234:19 13.92680WILRIJK
12.341FRENCKENS AnBEL1:10:224:23 13.72821WOLVERTEM
13.261FVANDERBIESEN FrancyBEL1:11:044:25 13.59919BRUXELLES 3
14.9271FWOUTERS HeidiBEL1:11:094:26 13.58934WONDELGEM
15.3089FBREEUR EvyBEL1:11:264:27 13.52977MERKSEM
16.4405FGIJZEN CynthiaNLD1:11:464:28 13.461026DEN HAAG
17.11210FPARENT CindyBEL1:12:154:30 13.371106ANTWERPEN 1
18.799FTUYLS TineBEL1:12:214:30 13.351128ASSEBOEK
19.6840FBEGIC JasminBEL1:13:024:33 13.221252MERCHTEM
20.12026FGHOOS MarianneBEL1:13:074:33 13.211264HAM
21.15778FWESTLAKE Sophie1:13:264:34 13.151325
22.12115FVANDEBUERIE JokeBEL1:13:304:34 13.141337SINT-ANDRIES
23.13419FTHEUNS ChloeBEL1:13:354:35 13.121357
24.3662FROYACKERS LiesBELEUBELIUS1:14:064:37 13.031461HULDENBERG
25.3420FVERVOORT WendyBEL1:14:104:37 13.021478BERCHEM (ANTWER
26.2923FVAN BRUWAENE LoreBEL1:14:114:37 13.021482ANTWERPEN
27.13183FRENEMA LouiseBEL1:14:114:37 13.021485ANTWERPEN
28.18351FLUYTEN PascaleBEL1:14:224:38 12.991529
29.2499FCANTILLON CharlotteBEL1:14:314:38 12.961563ANTWERPEN
30.16775FDUBOIS Camille1:14:434:39 12.931612
31.14690FTANGHE RaphaelleBEL1:14:544:40 12.891643
32.5261FGIANZINA OlgaGRC1:15:124:41 12.841695ATHENS
33.6357FMETSU KoenBEL1:15:304:42 12.791776EDEGEM
34.4863FEECKHOUT DorienBEL1:15:404:43 12.761824AAIGEM
35.9011FBROSENS KatleenBEL1:15:444:43 12.751835HOOGSTRATEN
36.9295FMARRECAU SiskaBEL1:15:464:43 12.751852ZWEVEGEM
37.7346FMACHER TundeBEL1:15:484:43 12.741860BRUSSELS
38.4624FPOLFLIET SofieBEL1:16:314:46 12.622029HINGENE
39.12352FCANNAERTS NeleBELINTERSOC1:16:424:46 12.592084HERENTALS
40.19159FDE CRAEN MartineNLD1:16:434:46 12.592091
41.4127FSACRE LaetitiaBEL1:17:004:48 12.542176OPWIJK
42.3495FDE VOS JolandaNLD1:17:134:48 12.512236ZOUTELANDE
43.7206FDE SCHEPPER ElkeBEL1:17:164:49 12.502250SINT-NIKLAAS
44.8638FSCHOCKAERT StephanieBELALCATEL - LUCENT1:17:534:51 12.402409BONHEIDEN
45.2987FMAGETTE AnnBEL1:18:274:53 12.312562MECHELEN
46.4794FBASTYNS KatrienBEL1:18:304:53 12.302580MEER
47.18899FHEYNDERICKX CindyBEL1:18:364:53 12.292608
48.10374FVOS IneBELAZ NIKOLAAS1:18:394:54 12.282618MORTSEL
49.8093FRUTGEERTS SofieBEL1:18:424:54 12.272624ANTWERPEN
50.13074FHUYGEN SaraBEL1:18:564:55 12.242698MERKSEM
51.3047FPITTELJON SofieBEL1:18:594:55 12.232714OOSTENDE
52.7202FDE RIDDER NathalieBEL1:19:094:56 12.202756LEBBEKE
53.5905FVANHOLLEBEKE OliviaBEL1:19:144:56 12.192775BRUXELLES
54.18966FDE BACKERE ChristinaBEL1:19:154:56 12.192779
55.9863FMERTENS AnnBEL1:19:174:56 12.182790OELEGEM
56.12573FLEMMENS NathalieBELUMICORE1:19:204:56 12.172808HERENTHOUT
57.10749FGEYSKENS JanneBEL1:19:244:56 12.162829DEURNE (ANTWERP
58.1324FVAN DEN BOSSCHE JolienBEL1:19:274:57 12.162844SINT-ANDRIES
59.4283FALSTEENS LotteBEL1:19:394:57 12.132916OVERIJSE
60.11396FBROSENS EvelineBEL1:19:404:57 12.122924RIJKEVORSEL
61.15349FPRINSEN Lesley1:19:504:58 12.102972
62.14173FPORTELAN BarbaraBEL1:19:524:58 12.092978
63.10121FCLAES SharaBELA.S.ADVENTURE NV1:19:554:58 12.092995BRECHT
64.10518FRENCKENS LiesbetBEL1:19:574:58 12.083007MEERDONK
65.14409FVAN EMELEN Aaricia1:20:024:59 12.073035
66.12018FAESAERT GrietCHE1:20:034:59 12.063046ZUEIXH
67.3351FDELIE EllenBEL1:20:044:59 12.063052HEVERLEE
68.13352FHAUQUIER MichaelaBEL1:20:064:59 12.063063
69.8738FITERBEKE EvelyneBEL1:20:155:00 12.033115KOOLSKAMP
70.16719FVERTRIEST Talis1:20:195:00 12.033134
71.13540FZUCKERMAN ShelleyBEL1:20:215:00 12.023139
72.14345FDE WACHTER BirtheBEL1:20:405:01 11.973242
73.9482FMEEUS KristinBEL1:20:445:01 11.963271BROECHEM
74.14512FDEHOUCK Sofie1:20:505:02 11.953304
75.1218FVALCKX CindyBEL1:21:075:03 11.913395
76.3833FVAN GOETHEM KatrienBEL1:21:095:03 11.903403KOKSIJDE
77.4012FROALKVAM EliseNOR1:21:115:03 11.903412STORD
78.2149FVERPLANKEN BiekeBEL1:21:185:04 11.883453MOCHRISTI
79.3665FVAN RIE WardBELEUBELIUS1:21:195:04 11.883454LEUVEN
80.10884FMORTELMANS PatriciaBEL1:21:265:04 11.863481LEUVEN
81.3911FDERVAUX NeleBELGENAE ASSOCIATES NV1:21:285:04 11.853493GENT
82.4819FKORSGAARD SidselBEL1:21:315:04 11.853510BRUSSELS
83.430FCRIEL ElsBEL1:21:325:04 11.853522TURNHOUT
84.15790FLAURENS Inne1:21:365:05 11.843540
85.12970FJANSSENS AstridBEL1:21:375:05 11.833541BORGERHOUT
86.5693FDAELEMANS IsabelleBEL1:21:395:05 11.833559TERVUREN
87.5948FVERBORGH WendyBEL1:21:425:05 11.823573GRIMBERGEN
88.18574FBONTE KimBEL1:21:455:05 11.813593
89.9383FBAUKENS ClaireBEL1:21:465:05 11.813598ERPS-KWERPS
90.18745FJOURET NathalieBEL1:21:555:06 11.793633
91.3787FVAN HESE NathalieBEL1:21:575:06 11.793641BEVEREN
92.18508FVERMEEREN MarliesBEL1:21:595:06 11.783659
93.15710FOCELLO Eleonora1:22:005:06 11.783662
94.13597FREUTER DelphineBELSEAT1:22:095:07 11.763701
95.11890FVILLANUEVA O'DRISCOLL JuliaBEL1:22:115:07 11.753716HOEILAART
96.9669FDEPOORTERE CharlotBELPWC1:22:165:07 11.743741MARKE (KORTRIJK
97.10395FPERSOON GreetBELUNIVERSTITEIT GENT1:22:205:07 11.733767MARIAKERKE (GEN
98.18657FGANTOIS LaetitiaBEL1:22:255:08 11.723802
99.19061FBEIRINCKX AnnickBELBOKS ZVW1:22:265:08 11.713808
100.10773FMARISSENS AnneliesBEL1:22:295:08 11.713819BERCHEM
101.19206FVINCK EllenBEL1:22:315:08 11.713828
102.12494FROCK ArnoudBEL1:22:315:08 11.703830MECHELEN
103.4811FYSKOUT AnBEL1:22:375:08 11.693861LEUVEN
104.6578FDE TOBEL MichelleBEL1:22:395:09 11.693872LOKEREN
105.8723FBOSMANS GreetBEL1:22:395:09 11.693873WECHELDERZANDE
106.3542FBOGAERTS AnBEL1:22:425:09 11.683887MUIZEN (MECHELE
107.14764FCOHEN Sophie1:22:465:09 11.673910
108.302FKWIK FloorNLD1:22:475:09 11.673914ANTWERPEN
109.11228FCHRISTOFEUL MarieBEL1:22:505:09 11.663936BERCHEM (ANTWER
110.15439FPAGE Laura1:22:585:10 11.643970
111.3838FWINDEY LeniBEL1:22:595:10 11.643975BORNEM
112.8562FCOOLS SofieBEL1:22:595:10 11.643976ZWIJNDRECHT
113.14612FFOUBERT Leslie1:23:025:10 11.633991
114.13498FMARRECAU EliseBEL1:23:035:10 11.633998
115.3979FGOYVAERTS KatrienBEL1:23:105:11 11.614036ZOERLE-PARWIJS
116.10848FKEYSERS KatrienBEL1:23:125:11 11.614044HALLE (KEMPEN)
117.19068FENGHIEN LaurenBEL1:23:135:11 11.604055
118.5211FSTABEL KimBEL1:23:155:11 11.604073LINT
119.1385FMATHIJS VeerleBEL1:23:165:11 11.604074ROESELARE
120.6288FLAUWERS IngeBEL1:23:215:11 11.594111OUD TURNHOUT
121.527FVERSTEYNEN AnnemieBEL1:23:235:11 11.584118WESTMALLE
122.2561FRUYS LoreBEL1:23:255:11 11.584133WILRIJK
123.14435FVAN LEUVENHAEGE Sarah1:23:255:11 11.584135
124.5700FDEREYMAEKER GrietBEL1:23:255:11 11.584136TERVUREN
125.8999FKUBALA ArtemisBEL1:23:295:12 11.574163MALLE
126.10725FCLAESSENS GrietBEL1:23:365:12 11.554203WOMMELGEM
127.15754FDE WOLF Laure1:23:475:13 11.534262
128.16842FTAILLEUR Fanny1:23:475:13 11.534265
129.4358FVAN HOUTERT CathyBELOXBOW COAL1:23:535:13 11.514299HOBOKEN (ANTWER
130.5500FDE BONDT JorisBELSGS GROEP BELGIË1:24:005:14 11.504343PUURS
131.18961FVAN DEN MOOTER ElineBEL1:24:085:14 11.484391
132.19317FSTUYCK LaureBELMARS1:24:085:14 11.484392ELSENE
133.6563FDE MUYNCK ElineBEL1:24:105:14 11.474409ELSENE
134.3919FSEYER StephanieBEL1:24:205:15 11.454480WAVRE
135.4248FSMET PriyaBEL1:24:245:15 11.444502GRIMBERGEN
136.12100FGEBBINK RoelienBEL1:24:295:15 11.434526MERELBEKE
137.12750FVAN HUNSEL TineBELINTERSOC1:24:355:16 11.424551ALKEN
138.5246FVLEUGELS JasmineBEL1:24:375:16 11.414557LINT
139.7938FCABAY ChristelleBELHP1:24:415:16 11.414582SCHAERBEEK
140.7558FCAMBRE LiesbethBEL1:24:445:16 11.404596TURNHOUT
141.15828FMAES Isabelle1:24:465:16 11.394606
142.6779FDE RON SanneBEL1:24:485:17 11.394621WEERDE
143.4890FNORGA LievekeBEL1:24:485:17 11.394622WILRIJK
144.3799FLAMBRECHT JulieBEL1:24:495:17 11.394630KOOLSKAMP
145.10589FTRUYEN HanneBEL1:24:515:17 11.384647PULDERBOS
146.210FKLOVEN SORENSEN LenaBEL1:24:515:17 11.384648SINT-AMANDSBERG
147.4135FTACK ValerieBEL1:24:525:17 11.384651SINT-NIKLAAS
148.6615FUMMELS SolangeBEL1:24:565:17 11.374669LEUVEN
149.12184FSTOCKMAN LiesbethBELROYAL ESSO CLUB VZW1:24:595:17 11.374686BERCHEM (ANTWER
150.12783FVILEIJN IsoldeBELINTERSOC1:24:595:17 11.364688DILSEN
151.16820FLEEGAARD Ellen Dorothea1:25:005:17 11.364701
152.9454FGEYSEN TinneBEL1:25:075:18 11.354745BEERSE
153.3798FPLATENBURG WendyNLD1:25:075:18 11.354746BEST
154.10394FKOLKMAN IrisBELUNIVERSTITEIT GENT1:25:115:18 11.344771MERELBEKE
155.9491FVAN WANSEELE WendyBEL1:25:175:18 11.324816DRONGEN
156.6549FO'FLYNN JessicaBEL1:25:245:19 11.314854ETTERBEEK
157.10068FVAN DE WAL KarenBELSHIRE-MOVETIS1:25:275:19 11.304868BORSBEEK
158.13515FTOENHAKE RianneBEL1:25:295:19 11.304879
159.4851FDE NAEYER KatrienBEL1:25:325:19 11.294896ANTWERPEN
160.12649FGEEROMS NeleBELINTERSOC1:25:355:19 11.294909LONDERZEEL
161.6761FLITZROTH AmberBEL1:25:375:20 11.284917DEURNE
162.13360FKINANE AnneliesBEL1:25:405:20 11.274932
163.15543FTOSH Amanda1:25:475:20 11.264971
164.6800FROCHTUS AnneBELGZA1:25:495:20 11.254981SCHILDE
165.5270FKEERSMAEKERS InesBEL1:25:525:21 11.254998ANTWERPEN 1
166.10385FALEGRIA MIRA LaraBEL1:25:535:21 11.255003BEKKERZEEL
167.12932FBRASPENNING MoniekBEL1:25:535:21 11.245005BORGERHOUT
168.14594FMAROSI AnnaBEL1:25:555:21 11.245018BRUSSELS
169.14599FGARCIA MaiteBEL1:25:565:21 11.245037
170.5197FWOLFS SofieBEL1:26:055:21 11.225079KORTRIJK DUTSEL
171.6149FSMITS MarjolijnBEL1:26:055:21 11.225085ROOSDAAL
172.3881FO'CONNOR EileenBEL1:26:055:21 11.225087BRUSSELS
173.13398FVERMEEREN LauraBEL1:26:075:21 11.225093
174.13113FAPOSTEL KatrijnBEL1:26:075:22 11.215096ANTWERPEN
175.14750FAERNAUDTS Cecilia1:26:095:22 11.215106
176.18877FVAN GENABET MarijkeBEL1:26:125:22 11.205120
177.5063FVANDEPITTE EmmaBELFEBELCO1:26:205:22 11.195179KALMTHOUT
178.1768FVAN DE SYPE FannyBEL1:26:205:22 11.195184RUISBROEK
179.3247FVELTKAMP FleurBEL1:26:225:22 11.185199BRUSSEL
180.16873FBORREMAN Aster1:26:235:22 11.185205
181.12943FDE GROOTE IsabelBEL1:26:275:23 11.175227GENTBRUGGE
182.13231FGIELENS CarolineBEL1:26:275:23 11.175228ANTWERPEN
183.3425FCNUDDE IngeBEL1:26:305:23 11.165247ANTWERPEN
184.9994FVANDEKEYBUS LiesbethBEL1:26:335:23 11.165267KALMTHOUT
185.7132FDE VISSCHER EllenBEL1:26:345:23 11.165270MECHELEN
186.6459FVANDERSCHRICK NoraBELECO PRINT CENTER NV1:26:395:23 11.155294ASSE
187.7440FHOEDEMAKERS EstherBEL1:26:405:24 11.145299ANTWERPEN
188.5089FVRGULT AnBELFEBELCO1:26:445:24 11.145330ANTWERPEN 1
189.15541FJANSSENS Ans1:26:455:24 11.135337
190.9617FVANDEVOORDE MiekeBELAXIMA REFRIGERATION NV1:26:455:24 11.135341BEVEREN-LEIE
191.1536FTAELMAN BiekeBEL1:26:465:24 11.135343HARELBEKE
192.6084FFRIJLINK MerelNLD1:26:465:24 11.135347AMSTERDAM
193.9288FENGLEBERT JulieBEL1:26:535:24 11.125378ANTWERPEN
194.16875FBRAUWERS Anke1:26:535:24 11.115380
195.10999FCOMPERNOLLE SofieBEL1:27:005:25 11.105422MOERKERKE
196.5363FDEFORCHE SaraBEL1:27:055:25 11.095458BORGERHOUT
197.9590FLEYS IngeBELERNST & YOUNG1:27:065:25 11.095465MASSEMEN
DNF: abandon; DSQ: disqualifié; Vitesse en km/h
ChronoRace - Electronic Timing - www.chronorace.be